Preview of NWS' New Version of Forecast
This preview is not operational and should not be used for support decisions.

Regional Weather Roundup (RWR)

Issued by National Weather Service (NWS)

                            
000
ASUS43 KTOP 200508
RWRKS 

WEATHER ROUNDUP FOR KANSAS
NATIONAL WEATHER SERVICE GOODLAND KS
1200 AM CDT SAT APR 20 2019

NOTE:  "FAIR" INDICATES FEW OR NO CLOUDS BELOW 12,000 FEET WITH NO
SIGNIFICANT WEATHER AND/OR OBSTRUCTIONS TO VISIBILITY.

KSZ001>006-013>018-027>032-041>047-200600-
NORTHWEST KANSAS
  
CITY           SKY/WX    TMP DP  RH WIND       PRES   REMARKS
GOODLAND       CLEAR     55  35  47 S13       29.97F                  
HAYS           CLEAR     47  33  58 S7        29.98F                  
HILL CITY      CLEAR     52  35  52 S7        29.97S                  
RUSSELL        CLEAR     48  33  56 S12       29.96F                  
$$

KSZ061>065-074>080-084>089-200600-
SOUTHWEST KANSAS
  
CITY           SKY/WX    TMP DP  RH WIND       PRES   REMARKS
DODGE CITY     CLEAR     51  32  48 S9        30.01F                  
ELKHART        CLEAR     48  37  65 S10       30.05F                  
GARDEN CITY    CLEAR     45  33  63 S9        30.00F                  
GREAT BEND     CLEAR     45  32  60 S7        30.00                   
LIBERAL        CLEAR     46  35  65 S9        30.04S                  
PRATT          CLEAR     46  34  64 SW7       30.02S                  
$$

KSZ066>073-081>083-090>101-200600-
SOUTHEAST KANSAS
  
CITY           SKY/WX    TMP DP  RH WIND       PRES   REMARKS
CHANUTE        CLEAR     42  36  79 CALM      30.00S                  
COFFEYVILLE    CLEAR     46  38  73 CALM      30.00S                  
HUTCHINSON     CLEAR     38  33  82 CALM      30.00F                  
MEDICINE LODGE   N/A     48  38  68 S3        30.02S                  
NEWTON         CLEAR     48  30  49 SE3       30.01F                  
PARSONS        CLEAR     43  37  79 CALM      30.01S                  
WICHITA INTL   CLEAR     46  35  65 CALM      30.01S                  
WICHITA JABRA  CLEAR     48  29  47 CALM      30.00F                  
WICHITA MCCONL CLEAR     52  33  48 CALM      30.00F                  
WINFIELD       CLEAR     48  39  71 E5        30.02F                  
$$

KSZ007>012-019>026-033>040-048>060-102>105-200600-
NORTHEAST KANSAS
  
CITY           SKY/WX    TMP DP  RH WIND       PRES   REMARKS
CONCORDIA      CLEAR     53  32  44 S12       29.96F                  
EMPORIA        CLEAR     50  32  50 W3        30.00F                  
LAWRENCE       CLEAR     40  34  79 NW6       29.99S                  
MANHATTAN      CLEAR     41  34  76 CALM      29.99F                  
MARYSVILLE     CLEAR     45  30  57 S3        29.97F                  
OLATHE IND     CLEAR     47  34  60 NW5       29.99F                  
OLATHE EXE     CLEAR     49  32  52 NW5       29.98S                  
SALINA         CLEAR     43  33  68 S8        29.99F                  
TOPEKA BILLARD CLEAR     45  36  70 CALM      29.99F                  
TOPEKA FORBES  CLEAR     42  33  70 CALM      29.99F                  
$$